Regional Weather Roundup
Issued by NWS Kansas City/Pleasant Hill, MO

Home | Current Version | Previous Version | Text Only | Print | Product List | Glossary On
Versions: 1 2 3 4 5 6 7 8 9 10 11 12 13 14 15 16 17 18 19 20 21 22 23 24 25 26 27 28 29 30 31 32 33 34 35 36 37 38 39 40 41 42 43 44 45 46 47 48 49 50
000
ASUS43 KEAX 280210
RWREAX

WEATHER ROUNDUP FOR EASTERN KANSAS AND NORTHWEST MISSOURI
NATIONAL WEATHER SERVICE KANSAS CITY/PLEASANT HILL MO
900 PM CDT THU JUL 27 2017

KSZ040-057-103>105-MOZ028-029-037-043-280300-
...KANSAS CITY METROPOLITAN AREA...

CITY           SKY/WX    TMP DP  RH WIND       PRES   REMARKS
K.C. INTL      MOCLDY    79  71  76 NE5       29.94S
K.C. DOWNTOWN  NOT AVBL
LEES SUMMIT    CLOUDY    80  73  79 NE6       29.94S
OLATHE - IXD   PTCLDY    78  72  81 NE5       29.94R
OLATHE - OJC   CLEAR     79  72  79 NE7       29.94R
LAWRENCE       PTCLDY    79  73  82 N5        29.93S

$$

MOZ001>008-011>017-020>025-030>033-038>040-044>046-053-054-280300-
...NORTHERN AND CENTRAL MISSOURI...

CITY           SKY/WX    TMP DP  RH WIND       PRES   REMARKS
ST. JOSEPH     MOCLDY    76  73  91 N6        29.94R
MOSBY          PTCLDY    77  72  83 CALM      29.92S
WARRENSBURG    CLOUDY    77  72  83 N3        29.92R
WHITEMAN AFB   CLOUDY    77  77 100 NE5       29.91S
CLINTON        CLOUDY    79  75  89 NE8       29.92S
SEDALIA        CLOUDY    79  77  94 NE3       29.93S
WARSAW         NOT AVBL
CHILLICOTHE      N/A     77  75  93 CALM      29.93S
KIRKSVILLE     CLEAR     75  70  84 NE6       29.94S

$$

MOZ041-047>049-056>058-063>065-088>090-097-280300-
...EASTERN AND SOUTHERN MISSOURI...

CITY           SKY/WX    TMP DP  RH WIND       PRES   REMARKS
ST. LOUIS INTL MOCLDY    80  72  76 N5        29.89R
SPIRIT OF STL  MOCLDY    77  76  96 N3        29.87S
COLUMBIA       CLOUDY    78  75  90 CALM      29.92R
JEFFERSON CITY CLOUDY    79  76  90 NE3       29.90S
ROLLA          CLOUDY    75  73  93 N3        29.94R
OSAGE BEACH    CLOUDY    77  76  96 CALM      29.92R
SPRINGFIELD    CLOUDY    80  76  87 NE6       29.92R
BRANSON        CLOUDY    77  75  94 SE5       29.94R
JOPLIN         MOCLDY    79  78  97 NE3       29.91F
WEST PLAINS    CLOUDY    78  74  87 SW3       29.94R

$$

IAZ060-094-KSZ022-034>040-054-083-096-NEZ052-066-093-280300-
...KANSAS...SOUTHEAST NEBRASKA AND IOWA...

CITY           SKY/WX    TMP DP  RH WIND       PRES   REMARKS
TOPEKA         CLEAR     79  74  84 N5        29.93S
MANHATTAN      PTCLDY    80  69  69 NE6       29.95S
EMPORIA        MOCLDY    78  71  79 NE5       29.94R
CHANUTE        LGT RAIN  80  74  81 NE7       29.92R
WICHITA        CLOUDY    83  71  67 NE9       29.94S
OMAHA          PTCLDY    76  67  73 N5        30.00R
LINCOLN        CLEAR     74  65  73 NE7       30.01S
FALLS CITY     CLOUDY    75  67  76 N5        29.96S
LAMONI         CLEAR     77  64  64 NE8       29.97R
DES MOINES     PTCLDY    77  59  53 NE7       29.97S

$$




USA.gov is the U.S. government's official web portal to all federal, state and local government web resources and services.